Regional Weather Roundup
Issued by NWS Columbia, SC

Home | Current Version | Previous Version | Text Only | Print | Product List | Glossary On
Versions: 1 2 3 4 5 6 7 8 9 10 11 12 13 14 15 16 17 18 19 20 21 22 23 24 25 26 27 28 29 30 31 32 33 34 35 36 37 38 39 40 41 42 43 44 45 46 47 48 49 50
000
ASUS42 KCAE 060910
RWRCAE
REGIONAL WEATHER ROUNDUP
NATIONAL WEATHER SERVICE COLUMBIA SC
400 AM EST SAT FEB 06 2016

NOTE: "FAIR" INDICATES FEW OR NO CLOUDS BELOW 12,000 FEET WITH NO
SIGNIFICANT WEATHER AND/OR OBSTRUCTIONS TO VISIBILITY.

NOT ALL STATIONS ARE QUALITY CONTROLLED BY THE NATIONAL
WEATHER SERVICE. USE DATA WITH CAUTION...ESPECIALLY
DEWPOINT OBSERVATIONS.

SCZ001>056-GAZ040-063>065-077-061000-
...UPSTATE SOUTH CAROLINA...

CITY           SKY/WX    TMP DP  RH WIND       PRES   REMARKS
ANDERSON       CLOUDY    30  21  69 CALM      30.39S
LIBERTY        MOSUNNY   25  21  85 CALM      30.37F
SPARTANBURG    CLOUDY    30  19  64 N3        30.40S
CLEMSON        PTCLDY    35  26  69 N5        30.39F WCI  31
GREENVILLE     CLOUDY    34  15  46 NE9       30.39S WCI  27
GREENWOOD      PTCLDY    28  22  78 N3        30.41R
GREER          CLOUDY    32  17  54 NE3       30.39R
ROCK HILL      CLOUDY    28  23  81 CALM      30.40R
CHESTER        CLOUDY    30  19  64 N5        30.40S WCI  25
LAURENS        CLOUDY    28  23  80 N5        30.40S WCI  23


...CENTRAL SOUTH CAROLINA...

CITY           SKY/WX    TMP DP  RH WIND       PRES   REMARKS
COLUMBIA APT   CLOUDY    28  23  81 CALM      30.40R
COLUMBIA OWENS CLOUDY    31  27  85 CALM      30.42R
MCENTIRE ANGB  CLEAR     28  24  84 CALM      30.40R
ORANGEBURG     CLEAR     31  27  85 CALM      30.39S
SUMTER SHAW    CLOUDY    31  23  71 CALM      30.38R
NEWBERRY       CLOUDY    30  23  74 N7        30.43R WCI  23
AIKEN            N/A     27  25  93 CALM      30.42R
BARNWELL       FAIR      30  30 100 CALM      30.40S
MANNING        FAIR      28  21  74 CALM      30.40R
CAMDEN         FAIR      28  28 100 CALM      30.41R
LANCASTER      CLOUDY    27  27 100 CALM      30.41R
WINNSBORO      CLOUDY    32  23  69 N6        30.39R WCI  26


...EASTERN AND COASTAL SOUTH CAROLINA...

CITY           SKY/WX    TMP DP  RH WIND       PRES   REMARKS
MYRTLE BEACH   CLEAR     36  27  69 N8        30.41S WCI  29
N MYRTLE BCH   CLEAR     33  30  88 NE5       30.39S WCI  29
CONWAY         FAIR      30  30 100 CALM      30.41R FOG
MARION         FAIR      32  32 100 CALM      30.41R
HARTSVILLE     FAIR      28  23  80 CALM      30.40R
FLORENCE       CLEAR     30  27  88 CALM      30.40R
DARLINGTON     CLOUDY    30  23  74 N3        30.42R
CHARLESTON APT CLEAR     36  29  75 N7        30.37S WCI  30
MOUNT PLEASANT FAIR      37  32  81 N6        30.35F WCI  33
WALTERBORO     MOSUNNY   32  32 100 NW3       30.40S
BEAUFORT       CLEAR     38  30  73 N8        30.36F WCI  32


...EASTERN GEORGIA...

CITY           SKY/WX    TMP DP  RH WIND       PRES   REMARKS
AUGUSTA BUSH F CLEAR     28  26  92 CALM      30.41R
AUGUSTA DANIEL CLOUDY    35  23  61 CALM      30.40R
THOMSON        CLOUDY    29  29 100 CALM      30.43F
WASHINGTON     FAIR      34  32  93 CALM      30.38F
CLAXTON        FAIR      32  32  99 N3        30.38R
SYLVANIA       SUNNY     33  33 100 CALM      30.40R
STATESBORO     CLEAR     33  33 100 CALM      30.39R
SAVANNAH       CLEAR     36  29  75 N6        30.36F WCI  31


...SOUTHERN NORTH CAROLINA...

CITY           SKY/WX    TMP DP  RH WIND       PRES   REMARKS
CHARLOTTE      PTCLDY    28  17  63 N6        30.40R WCI  22
MONROE         CLOUDY    31  17  56 NE5       30.39R WCI  26
WADESBORO      MOSUNNY   27  24  91 CALM      30.41S
ROCKINGHAM     CLOUDY    28  26  93 CALM      30.40R
RUTHERFORDTON  CLOUDY    27  19  70 CALM      30.40S
ASHEVILLE      PTCLDY    25  18  74 CALM      30.36S

$$



USA.gov is the U.S. government's official web portal to all federal, state and local government web resources and services.